Date,TemperatureHighF,TemperatureAvgF,TemperatureLowF,DewpointHighF,DewpointAvgF,DewpointLowF,HumidityHigh,HumidityAvg,HumidityLow,PressureMaxIn,PressureMinIn,WindSpeedMaxMPH,WindSpeedAvgMPH,GustSpeedMaxMPH,PrecipitationSumIn
2013-1-1,36.1,30.4,19.8,33.2,27.4,16.5,100,89,71,30.14,30.02,6,2,11,0.00
2013-1-2,33.1,18.7,6.7,25.0,13.5,3.5,91,80,53,30.26,30.11,3,0,6,0.00
2013-1-3,39.1,21.6,5.2,27.3,15.7,1.9,91,78,56,30.30,30.19,9,3,16,0.00
2013-1-4,38.5,30.8,25.5,28.1,24.0,19.8,84,75,62,30.33,30.27,13,6,25,0.00
2013-1-5,43.8,32.2,19.3,33.7,26.6,17.7,98,80,61,30.35,30.15,6,3,11,0.06
2013-1-6,38.5,33.1,26.4,33.6,29.0,22.2,92,84,80,30.34,30.01,10,4,20,0.15
2013-1-7,42.7,28.6,16.5,34.6,24.2,14.4,95,84,67,30.47,30.24,7,2,13,0.02
2013-1-8,52.4,34.6,19.4,40.7,29.8,17.1,97,83,62,30.31,30.21,8,3,14,0.05
2013-1-9,57.4,42.0,30.5,51.5,38.2,28.2,100,86,70,30.51,30.20,10,4,17,0.04
2013-1-10,43.7,34.9,24.6,41.8,32.9,24.4,100,92,81,30.52,30.11,5,2,12,0.06
2013-1-11,63.1,52.7,43.8,60.8,52.0,41.8,100,97,88,30.11,29.88,12,5,29,0.54
2013-1-12,65.7,58.6,48.5,65.6,58.6,48.5,100,100,99,30.03,29.80,10,4,23,0.05
2013-1-13,64.8,53.6,34.7,64.8,53.6,34.7,100,100,100,30.12,29.73,15,7,25,1.55
2013-1-14,34.7,27.2,23.0,34.3,24.5,20.6,100,89,76,30.45,30.12,7,1,14,0.00
2013-1-15,32.8,27.9,19.2,27.7,24.8,18.5,99,87,79,30.38,30.07,8,-582,13,0.03
2013-1-16,37.2,33.0,29.8,30.9,28.2,24.6,92,83,63,30.08,29.96,0,-999,0,0.00
2013-1-17,45.1,33.5,25.1,37.6,27.5,18.6,92,79,64,30.38,30.07,0,-999,0,0.00
2013-1-18,41.5,29.5,15.8,26.0,20.7,13.9,93,71,46,30.51,30.21,0,-999,0,0.00
2013-1-19,54.2,42.9,34.9,31.6,28.3,25.5,70,57,39,30.21,29.86,14,-614,27,0.00
2013-1-20,45.8,33.7,23.2,37.0,18.7,9.4,75,54,38,30.22,29.89,15,5,28,0.00
2013-1-21,26.8,20.5,10.0,17.8,9.6,-2.0,77,62,49,30.22,29.82,13,6,26,0.00
2013-1-22,23.1,13.2,4.6,5.3,0.3,-3.4,70,56,43,30.36,30.21,10,5,20,0.00
2013-1-23,21.8,17.2,8.6,14.1,5.4,-0.6,76,60,43,30.32,30.07,8,2,14,0.00
2013-1-24,26.5,19.0,10.3,16.8,8.0,3.0,85,63,40,30.57,30.04,9,4,19,0.00
2013-1-25,27.6,23.2,17.9,23.6,14.8,7.4,85,70,54,30.43,30.02,7,3,12,0.00
2013-1-26,37.0,25.8,14.4,23.9,18.2,10.3,92,74,52,30.43,30.10,8,3,14,0.03
2013-1-27,38.4,28.8,13.9,34.4,22.9,10.4,100,79,61,30.43,30.17,6,3,12,0.39
2013-1-28,51.3,45.9,34.5,51.3,45.9,34.5,100,100,100,30.16,30.01,10,6,18,0.39
2013-1-29,65.2,57.5,48.1,64.2,57.1,48.1,100,99,91,30.05,29.58,14,7,27,0.00
2013-1-30,66.2,51.6,31.9,64.6,50.7,28.2,100,97,83,29.58,29.24,16,9,33,0.61
2013-1-31,32.9,26.6,15.6,28.7,19.6,11.2,97,75,59,30.00,29.52,17,10,31,0.00
2013-2-1,21.7,12.0,4.7,10.4,4.1,-1.5,85,71,57,30.38,30.02,10,5,24,0.00
2013-2-2,32.7,22.3,6.7,26.9,19.0,3.7,96,87,71,30.31,29.97,9,5,18,0.00
2013-2-3,29.2,22.2,15.5,25.3,15.9,8.9,91,77,52,30.10,29.91,9,5,16,0.00
2013-2-4,34.2,26.8,15.7,33.2,24.1,13.5,100,90,66,30.10,29.80,9,3,17,0.01
2013-2-5,36.6,32.1,26.4,33.4,28.6,23.0,100,87,63,29.99,29.83,7,3,14,0.02
2013-2-6,36.9,32.4,24.6,32.3,27.5,22.3,94,82,63,30.26,29.99,6,2,14,0.02
2013-2-7,60.5,41.6,28.1,45.9,35.5,25.7,95,80,56,30.22,29.79,8,3,13,0.00
2013-2-8,49.5,35.1,28.5,45.4,32.2,22.5,100,89,71,30.31,29.78,10,6,20,0.15
2013-2-9,42.9,29.4,17.6,30.1,22.9,16.1,96,78,51,30.42,30.23,5,2,10,0.00
2013-2-10,53.4,41.9,24.5,47.1,32.5,20.8,100,71,42,30.23,29.78,12,6,26,0.02
2013-2-11,51.6,45.8,35.8,51.6,37.8,28.3,100,75,52,30.02,29.75,19,9,31,0.00
2013-2-12,52.1,37.2,26.9,34.3,28.6,24.2,97,73,42,30.12,29.90,8,3,16,0.00
2013-2-13,31.3,29.6,28.0,29.9,27.9,24.6,99,93,85,29.90,29.77,6,3,11,0.00
2013-2-18,51.8,47.0,44.5,41.5,38.7,32.5,89,74,48,29.77,29.74,16,12,28,0.12
2013-2-19,44.5,32.0,23.3,43.7,27.6,17.1,100,83,68,30.08,29.63,15,10,27,0.20
2013-2-20,30.3,23.2,17.6,19.4,14.8,9.8,86,70,55,30.29,30.08,11,5,19,0.00
2013-2-21,32.4,25.7,20.8,26.5,19.3,13.8,90,76,66,30.34,30.06,10,4,18,0.00
2013-2-22,41.5,34.1,28.3,41.1,33.8,25.0,100,99,89,30.06,29.87,10,4,20,0.08
2013-2-23,47.6,35.9,30.0,33.9,30.5,24.4,100,82,56,29.98,29.89,7,3,13,0.00
2013-2-24,44.2,31.5,23.1,29.4,24.7,20.4,96,77,53,30.15,29.93,6,2,12,0.00
2013-2-25,45.6,33.2,17.7,32.3,25.8,17.1,98,76,56,30.17,30.02,10,4,19,0.00
2013-2-26,45.6,39.3,33.2,45.6,36.9,26.5,100,91,69,30.02,30.02,11,6,23,0.85
2013-2-27,41.7,36.4,32.1,41.7,36.3,32.1,100,100,93,30.02,30.02,12,7,21,0.07
2013-2-28,36.0,33.7,31.7,35.7,33.7,31.7,100,100,98,30.02,30.02,10,5,19,0.12
2013-3-1,36.5,32.9,28.5,34.1,31.3,24.5,100,94,80,30.02,30.02,7,3,13,0.01
2013-3-2,29.6,27.8,26.1,25.8,23.2,20.8,90,82,75,30.02,30.02,7,3,12,0.00
2013-3-3,33.9,28.7,22.9,26.0,21.9,17.8,94,76,55,30.02,30.02,7,3,16,0.00
2013-3-4,47.0,31.1,15.6,31.1,22.7,14.4,98,74,41,30.02,30.02,6,1,9,0.01
2013-3-5,36.8,33.8,31.8,35.4,33.1,30.9,100,97,87,30.02,29.56,8,4,18,0.36
2013-3-6,36.0,31.4,28.1,33.1,30.5,27.7,100,96,83,30.23,29.58,0,0,0,0.00
2013-3-7,45.5,34.7,28.9,34.4,30.6,25.5,100,86,60,30.37,30.22,4,1,10,0.27
2013-3-8,47.9,32.3,17.5,30.5,24.7,16.2,95,76,46,30.47,28.60,6,1,10,0.23
2013-3-9,58.1,41.4,26.4,44.3,34.5,23.9,100,78,55,30.38,30.04,6,3,12,0.00
2013-3-10,69.2,57.2,47.9,43.3,38.5,35.5,72,50,31,30.04,29.83,12,6,18,0.04
2013-3-11,62.4,47.7,37.6,52.5,45.9,34.6,100,94,57,29.87,29.58,14,6,25,1.24
2013-3-12,44.5,36.6,32.0,35.1,31.9,28.3,100,83,62,30.03,29.83,11,6,18,0.00
2013-3-13,36.1,30.8,26.4,33.1,26.8,21.5,100,85,64,30.28,29.98,11,6,23,0.00
2013-3-14,46.9,33.2,21.1,25.9,22.1,19.7,94,67,37,30.33,30.14,7,3,14,0.00
2013-3-15,52.4,40.2,28.1,40.1,33.4,23.3,100,78,55,30.17,29.78,8,3,13,0.00
2013-3-16,60.8,44.8,35.0,57.6,42.5,32.9,100,92,74,30.02,29.60,10,5,17,0.00
2013-3-17,37.2,34.6,32.7,32.9,30.1,27.6,93,83,74,30.14,30.00,10,6,17,0.00
2013-3-18,49.6,40.0,32.2,49.6,39.7,30.4,100,99,83,30.02,29.58,13,6,24,1.15
2013-3-19,45.3,36.2,28.2,37.3,25.4,16.8,98,67,37,30.08,29.80,19,9,32,0.00
2013-3-20,40.4,31.5,22.8,22.8,17.5,9.4,77,56,40,30.08,29.94,12,6,26,0.00
2013-3-21,34.8,26.4,17.9,18.1,15.0,10.0,88,63,45,30.01,29.92,9,4,16,0.00
2013-3-22,48.6,30.9,16.0,24.6,18.2,11.9,85,61,32,30.06,29.97,7,2,12,0.00
2013-3-23,53.8,40.1,24.7,30.2,24.1,18.6,90,57,30,30.06,29.89,7,2,12,0.00
2013-3-24,37.3,33.4,31.8,33.1,28.6,22.3,100,83,63,29.92,29.40,13,8,22,0.01
2013-3-25,36.1,32.2,29.9,33.1,31.5,29.8,100,97,84,29.91,29.40,6,2,14,0.12
2013-3-26,42.2,34.9,30.2,34.8,31.0,27.4,100,86,67,30.21,29.90,7,3,15,0.21
2013-3-27,46.1,37.7,28.5,34.8,28.9,22.2,97,72,50,30.29,30.20,7,4,14,0.00
2013-3-28,54.0,35.7,22.8,32.8,25.9,20.2,92,69,39,30.34,30.27,6,1,12,0.00
2013-3-29,59.5,42.1,24.6,42.3,28.5,23.6,98,63,33,30.31,30.19,5,1,12,0.00
2013-3-30,62.9,46.6,26.4,43.7,32.2,24.9,100,63,31,30.24,29.94,6,2,12,0.00
2013-3-31,60.0,48.3,43.3,52.6,44.1,33.6,100,86,60,29.96,29.75,9,3,19,0.06
2013-4-1,50.9,41.9,30.0,43.6,26.9,17.3,92,58,33,30.11,29.77,8,5,17,0.00
2013-4-2,50.6,36.7,19.0,28.0,19.7,14.8,88,54,27,30.24,30.10,9,3,15,0.00
2013-4-3,48.2,30.5,19.3,27.0,16.9,13.1,83,60,26,30.41,30.26,8,2,13,0.00
2013-4-4,60.4,39.1,30.1,22.8,19.1,14.8,64,47,17,30.34,29.97,5,2,11,0.00
2013-4-5,61.9,44.3,26.9,36.5,26.2,21.6,83,53,27,30.14,29.96,9,3,16,0.00
2013-4-6,68.5,49.5,33.7,36.0,28.0,22.6,64,45,25,30.21,29.90,9,5,18,0.00
2013-4-7,76.3,64.3,56.9,52.8,42.5,36.8,77,45,32,29.98,29.84,14,6,24,0.00
2013-4-8,73.2,61.0,49.4,58.8,54.5,49.4,100,80,58,30.00,29.86,13,5,21,0.08
2013-4-9,81.5,69.2,49.3,64.5,58.1,48.9,100,70,44,30.05,29.91,15,6,28,0.00
2013-4-10,84.6,72.1,62.7,68.0,62.2,56.8,89,71,48,29.96,29.79,13,6,24,0.00
2013-4-11,66.5,61.4,57.4,66.5,60.4,57.3,100,96,85,29.83,29.53,10,4,17,1.26
2013-4-12,57.4,46.4,40.1,57.3,40.5,32.2,100,81,55,29.90,29.50,12,6,21,0.23
2013-4-13,60.2,47.4,39.4,40.3,35.5,31.9,84,64,41,30.04,29.90,15,5,28,0.00
2013-4-14,73.0,53.4,34.3,46.0,39.3,31.6,91,63,34,30.07,29.87,7,3,13,0.00
2013-4-15,71.7,61.4,45.2,56.5,51.0,41.9,92,69,53,30.00,29.88,9,4,16,0.00
2013-4-16,82.2,64.1,56.7,67.8,59.8,53.8,100,87,56,30.17,29.94,12,6,20,0.46
2013-4-17,68.5,60.1,54.7,65.1,58.8,54.7,100,96,88,30.20,29.97,11,4,20,0.51
2013-4-18,84.7,73.3,63.3,68.5,61.2,53.2,95,68,42,29.98,29.61,18,10,37,0.00
2013-4-19,73.3,48.9,38.3,63.3,40.4,29.6,100,73,51,29.96,29.42,18,10,29,0.80
2013-4-20,54.5,41.9,31.7,33.8,28.8,22.2,91,62,35,30.39,29.96,12,5,18,0.00
2013-4-21,56.9,43.4,30.3,33.5,26.0,22.2,74,52,29,30.54,30.38,9,4,16,0.00
2013-4-22,74.6,54.2,33.7,41.4,33.9,25.8,78,49,24,30.38,30.13,7,2,11,0.00
2013-4-23,72.3,59.6,43.0,52.1,45.6,39.4,87,61,42,30.15,29.86,10,5,19,0.00
2013-4-24,64.6,50.2,33.8,57.1,44.5,32.1,100,81,60,30.21,29.77,12,5,24,0.96
2013-4-25,61.7,45.4,32.6,40.2,33.6,25.8,100,68,34,30.38,29.90,12,4,22,0.00
2013-4-26,63.1,49.2,30.0,40.8,31.6,26.3,94,56,25,30.46,30.34,5,1,10,0.00
2013-4-27,72.4,55.1,38.0,52.7,40.7,33.2,89,62,28,30.35,30.06,9,3,17,0.00
2013-4-28,69.1,58.8,54.5,62.7,57.3,52.2,100,95,72,30.06,29.82,9,4,15,0.41
2013-4-29,64.8,58.4,51.7,61.2,55.5,50.9,100,90,70,29.99,29.88,5,2,8,0.01
2013-4-30,82.7,63.2,45.2,60.6,53.3,45.2,100,74,39,30.07,29.97,6,3,13,0.01
2013-5-1,87.3,68.2,49.7,62.9,55.8,49.6,100,69,36,30.18,30.06,7,2,13,0.00
2013-5-2,78.9,66.3,57.2,55.2,53.3,50.9,87,64,42,30.23,30.10,7,3,14,0.00
2013-5-3,80.3,68.3,57.0,57.3,51.3,35.3,87,57,28,30.10,29.97,10,5,20,0.00
2013-5-4,74.9,64.2,55.9,49.3,44.0,36.1,68,48,32,30.01,29.94,8,5,19,0.00
2013-5-5,64.1,57.4,52.9,53.1,46.9,38.0,99,69,39,29.99,29.75,8,2,16,0.02
2013-5-6,62.1,56.2,52.3,60.9,55.9,52.3,100,99,91,29.97,29.90,11,5,19,0.83
2013-5-7,74.6,62.1,55.2,62.1,57.3,55.2,100,85,54,29.98,29.90,8,3,16,0.00
2013-5-8,79.7,63.0,49.1,62.8,55.3,49.1,100,79,43,30.00,28.37,8,2,16,0.00
2013-5-9,86.7,67.5,50.4,63.3,56.9,50.4,100,72,35,30.03,29.93,6,1,18,0.00
2013-5-10,70.5,62.8,58.4,66.8,61.9,56.9,100,97,80,29.99,29.80,9,3,26,0.90
2013-5-11,60.6,52.7,41.9,60.2,49.9,41.1,100,90,70,29.99,29.84,8,3,24,0.05
2013-5-12,58.9,46.8,35.0,41.6,34.1,28.3,100,66,34,30.11,29.99,10,3,20,0.00
2013-5-13,65.3,51.1,37.6,41.5,33.2,25.9,92,55,25,30.17,29.85,8,2,18,0.00
2013-5-14,83.7,62.6,40.4,59.6,44.7,34.5,80,53,37,30.13,29.81,12,6,25,0.00
2013-5-15,90.2,77.5,66.8,61.4,59.3,56.0,80,55,35,29.87,29.80,12,6,27,0.00
2013-5-16,83.9,69.7,60.2,67.1,61.5,56.8,100,76,51,29.99,29.84,10,2,90,0.42
2013-5-17,83.8,67.4,58.1,70.2,62.9,57.9,100,87,50,30.07,29.98,7,2,15,0.57
2013-5-18,81.5,68.1,60.6,70.0,64.5,60.6,100,89,62,30.07,29.97,6,1,11,0.02
2013-5-19,87.9,72.1,59.7,73.7,66.4,59.7,100,84,51,30.01,29.89,5,1,8,0.01
2013-5-20,88.2,76.7,67.3,75.1,70.2,66.5,100,82,58,30.01,29.88,8,4,17,0.00
2013-5-21,87.2,76.8,66.5,71.8,66.8,63.1,100,73,48,29.97,29.79,10,5,22,0.00
2013-5-22,82.7,70.2,63.0,70.1,64.6,61.3,100,84,53,29.85,29.72,11,4,24,0.17
2013-5-23,72.5,62.5,50.8,64.5,58.9,47.7,100,89,62,30.08,29.79,11,4,23,0.19
2013-5-24,67.0,54.6,44.3,47.0,41.2,34.4,95,63,33,30.31,30.08,10,4,19,0.00
2013-5-25,70.1,55.0,39.6,50.3,42.5,38.4,99,67,32,30.40,30.22,4,1,9,0.00
2013-5-26,76.0,61.4,46.4,50.3,45.2,40.3,99,59,32,30.31,30.18,6,2,11,0.00
2013-5-27,85.6,67.2,51.5,65.3,55.1,47.0,98,67,45,30.21,29.95,9,4,16,0.23
2013-5-28,85.6,76.3,66.7,69.1,63.5,60.3,88,65,45,30.01,29.93,12,5,27,0.00
2013-5-29,89.8,77.8,67.3,65.1,62.2,58.7,82,60,36,30.08,29.98,10,4,20,0.00
2013-5-30,90.0,78.6,67.2,70.8,67.0,63.4,97,69,47,30.15,30.00,10,4,17,0.00
2013-5-31,84.5,72.2,65.0,73.2,67.4,61.1,100,85,57,30.07,29.95,11,5,33,0.92
2013-6-1,83.2,73.9,67.1,73.2,69.7,66.2,100,87,60,29.97,29.76,13,6,24,0.00
2013-6-2,80.2,71.4,63.6,70.2,62.6,58.0,100,76,49,29.93,29.80,7,4,16,0.00
2013-6-3,70.8,61.5,50.6,58.1,52.7,48.1,91,73,56,30.06,29.93,7,3,13,0.00
2013-6-4,78.4,61.4,44.7,50.1,45.2,38.0,99,61,27,30.15,30.05,10,3,16,0.00
2013-6-5,87.6,70.3,55.6,64.5,55.2,48.9,91,60,37,30.09,29.85,6,2,11,0.03
2013-6-6,70.4,65.0,61.1,69.3,64.8,61.0,100,99,91,29.87,29.77,7,2,12,0.95
2013-6-7,78.0,65.0,57.4,63.0,58.4,54.5,100,81,49,29.89,29.79,7,4,12,0.00
2013-6-8,75.3,64.7,53.6,63.3,58.4,53.1,100,80,63,30.03,29.87,5,1,9,0.00
2013-6-9,85.2,73.0,63.2,69.3,64.9,61.9,100,78,47,30.07,29.89,8,4,14,0.00
2013-6-10,81.8,68.7,63.5,71.7,66.0,60.2,100,92,55,29.90,29.77,8,3,77,0.62
2013-6-11,90.0,73.1,61.9,71.5,66.9,61.9,100,83,47,29.96,29.84,7,2,11,0.03
2013-6-12,93.9,81.9,69.6,80.2,74.5,68.5,99,79,60,29.91,29.72,8,3,16,0.00
2013-6-13,81.8,71.0,64.5,76.7,64.9,56.6,100,82,52,29.91,29.59,11,4,21,1.86
2013-6-14,82.8,68.4,53.5,63.6,58.5,53.5,100,72,47,30.05,29.91,8,2,13,0.00
2013-6-15,86.9,71.6,54.3,66.1,61.1,54.3,100,72,45,30.12,29.95,6,2,12,0.00
2013-6-16,79.6,72.4,66.9,71.4,67.7,63.7,100,85,72,30.01,29.94,7,3,16,0.06
2013-6-17,91.7,76.3,63.8,74.8,70.1,63.8,100,83,48,29.98,29.87,5,1,9,0.00
2013-6-18,86.4,73.3,64.1,75.0,66.8,58.9,100,81,56,30.00,29.85,8,3,18,0.43
2013-6-19,83.5,69.0,55.5,59.7,56.3,54.0,97,67,40,30.12,30.00,7,3,13,0.00
2013-6-20,90.6,72.5,54.0,64.2,59.3,53.7,100,67,35,30.20,30.12,5,1,8,0.00
2013-6-21,92.0,75.6,56.8,69.5,63.9,56.6,100,70,39,30.22,28.45,6,2,12,0.00
2013-6-22,92.7,80.0,65.4,74.5,69.6,65.3,100,72,49,30.17,30.06,8,3,13,0.00
2013-6-23,93.3,75.4,65.1,74.8,67.9,62.3,100,80,42,30.15,30.04,10,2,23,0.00
2013-6-24,91.1,76.8,63.5,78.1,70.2,63.5,100,81,50,30.14,30.01,6,2,12,0.03
2013-6-25,94.3,79.5,67.8,76.8,71.5,63.3,100,79,38,30.06,29.91,7,3,16,0.00
2013-6-26,86.0,71.3,68.6,77.2,70.1,68.6,100,96,72,29.79,29.76,9,3,16,0.48
2013-6-27,90.8,75.2,66.9,78.2,70.9,66.9,100,88,60,29.79,29.66,8,2,16,0.09
2013-6-28,89.0,74.2,63.1,73.1,67.3,54.0,100,82,43,29.67,29.57,12,3,31,0.09
2013-6-29,81.4,69.3,60.4,71.7,64.7,60.4,100,86,62,29.64,29.56,5,1,11,0.10
2013-6-30,85.1,69.7,63.4,70.6,66.1,63.4,100,90,53,29.83,29.64,9,2,16,1.42
2013-7-1,78.7,68.1,61.7,72.8,67.3,61.7,100,97,78,29.91,29.80,8,3,14,0.22
2013-7-2,86.8,73.8,64.4,74.1,68.6,64.4,100,85,57,30.00,29.89,6,2,11,0.04
2013-7-3,84.7,75.2,66.7,75.2,69.7,66.7,100,84,58,30.11,30.00,9,3,13,0.00
2013-7-4,72.1,68.9,67.3,70.9,68.9,67.3,100,100,95,30.15,30.06,7,2,15,2.29
2013-7-5,83.6,71.7,65.2,75.0,69.8,65.2,100,94,72,30.14,30.07,5,2,9,0.15
2013-7-6,78.7,70.6,67.4,78.1,70.3,67.4,100,99,89,30.12,30.02,6,2,17,2.38
2013-7-7,86.5,72.6,63.9,73.9,68.9,63.9,100,89,60,30.11,30.01,4,2,9,0.00
2013-7-8,89.4,76.6,66.7,78.3,72.1,66.7,100,87,64,30.12,30.03,6,2,11,0.00
2013-7-9,92.6,80.1,70.4,79.2,74.8,66.9,100,85,54,30.07,29.97,15,4,32,0.57
2013-7-10,92.4,77.3,66.1,82.0,74.4,66.1,100,91,66,29.99,29.82,9,3,32,0.48
2013-7-11,81.9,71.5,61.0,71.7,65.5,56.2,100,82,59,30.00,29.91,10,3,17,0.00
2013-7-12,82.7,69.5,54.7,65.1,60.0,54.7,100,74,49,30.08,30.01,11,3,15,0.00
2013-7-13,85.9,74.4,62.4,70.7,66.4,61.0,97,77,55,30.14,30.05,9,3,15,0.00
2013-7-14,93.4,80.6,66.9,80.3,73.4,66.9,100,79,59,30.22,30.13,6,2,11,0.00
2013-7-15,97.8,82.6,71.2,76.7,73.6,70.8,100,77,45,30.30,30.22,5,2,9,0.00
2013-7-16,99.2,83.2,69.0,80.8,74.8,69.0,100,78,49,30.33,30.25,3,1,6,0.00
2013-7-17,98.3,83.2,70.1,80.6,75.5,70.1,100,79,48,30.32,30.18,6,1,10,0.00
2013-7-18,100.9,84.2,69.6,81.3,74.3,69.6,100,75,45,30.21,30.01,4,1,6,0.00
2013-7-19,92.0,79.5,70.1,80.0,75.5,65.8,100,88,63,30.05,29.87,9,2,28,1.65
2013-7-20,90.2,77.1,68.5,79.6,74.0,67.5,100,91,62,29.91,29.84,10,3,17,0.42
2013-7-21,88.4,75.7,66.3,80.5,72.2,66.3,100,90,66,29.96,29.86,6,1,9,0.00
2013-7-22,80.1,72.2,67.8,78.0,71.9,67.8,100,99,87,29.90,29.74,7,2,13,1.06
2013-7-23,87.5,74.7,66.6,79.1,71.6,65.1,100,90,72,29.81,29.71,9,2,16,0.06
2013-7-24,80.2,67.3,57.6,66.9,60.4,54.1,100,79,59,29.99,29.82,8,4,14,0.00
2013-7-25,81.8,67.0,51.8,65.9,57.1,51.8,100,73,44,30.07,29.99,7,2,12,0.00
2013-7-26,85.4,69.7,53.0,67.3,59.3,53.0,100,73,43,30.08,29.96,6,1,10,0.00
2013-7-27,81.0,68.0,61.8,73.1,63.4,57.2,100,86,53,29.96,29.81,8,2,15,0.64
2013-7-28,74.8,63.8,52.0,57.3,53.2,49.7,100,71,46,30.04,29.88,7,2,14,0.00
2013-7-29,82.8,65.0,53.6,62.2,56.3,52.0,100,76,46,30.17,30.04,7,2,14,0.00
2013-7-30,83.2,68.9,54.1,66.8,61.0,54.1,100,78,47,30.22,30.11,4,1,8,0.00
2013-7-31,77.9,70.0,64.9,70.7,67.2,61.5,100,91,75,30.11,29.93,7,2,11,0.00
2013-8-1,87.3,72.8,61.1,70.3,65.5,58.1,100,80,49,29.98,29.89,8,2,15,0.00
2013-8-2,86.1,72.5,55.2,67.3,62.8,55.2,100,74,46,29.99,29.93,6,2,14,0.00
2013-8-3,83.4,71.9,63.8,75.4,67.9,62.8,100,88,59,30.01,29.94,5,2,10,0.11
2013-8-4,81.7,68.6,56.6,65.4,59.2,54.1,96,74,49,30.12,30.01,8,3,15,0.00
2013-8-5,84.8,68.2,54.1,63.5,58.8,53.8,100,75,42,30.10,29.96,5,1,11,0.00
2013-8-6,85.7,72.3,59.2,72.7,64.6,58.0,98,78,56,29.97,29.90,7,3,12,0.00
2013-8-7,87.6,76.3,67.4,79.2,72.8,67.4,100,89,67,29.93,29.85,6,2,10,0.00
2013-8-8,90.3,73.9,68.9,82.8,73.4,68.9,100,98,70,29.94,29.87,7,1,16,2.48
2013-8-9,84.2,73.2,69.2,76.9,71.7,69.2,100,95,73,30.02,29.88,5,1,8,0.22
2013-8-10,91.5,75.8,64.3,78.1,71.0,64.3,100,87,57,30.10,30.02,4,1,7,0.00
2013-8-11,89.6,76.0,63.6,81.1,69.8,63.6,100,83,58,30.08,30.01,5,1,12,0.00
2013-8-12,92.3,74.4,61.6,76.1,68.2,61.6,100,83,49,30.07,29.86,6,2,11,0.03
2013-8-13,80.5,70.4,56.9,71.1,63.5,49.2,100,80,57,30.04,29.83,9,3,16,0.01
2013-8-14,75.0,57.4,48.6,57.2,50.6,48.5,99,79,48,30.15,30.04,8,2,12,0.00
2013-8-15,80.7,57.4,45.6,60.2,51.9,45.3,100,84,49,30.16,30.07,5,1,9,0.00
2013-8-16,83.1,66.1,53.1,62.6,57.2,52.6,100,75,48,30.15,30.09,7,2,13,0.00
2013-8-17,86.7,68.4,54.5,69.1,61.0,53.4,100,79,53,30.17,30.10,7,2,15,0.00
2013-8-18,88.7,70.6,56.3,70.0,63.1,56.3,100,80,48,30.17,30.07,6,1,11,0.00
2013-8-19,93.1,72.1,57.3,73.8,63.7,57.3,100,79,42,30.13,30.05,4,1,8,0.00
2013-8-20,90.6,73.1,58.1,74.3,65.6,58.1,100,80,49,30.17,30.08,5,1,11,0.00
2013-8-21,91.5,74.5,63.4,79.3,70.7,63.4,100,88,66,30.16,30.04,6,2,11,0.03
2013-8-22,91.8,73.7,65.2,77.5,70.7,65.2,100,91,58,30.10,30.00,8,2,13,0.04
2013-8-23,88.8,73.6,63.3,76.6,68.7,63.2,100,86,56,30.14,30.02,6,2,10,0.00
2013-8-24,90.7,72.1,55.2,74.7,64.0,54.8,99,77,49,30.26,30.14,5,2,8,0.00
2013-8-25,92.3,73.5,57.2,69.7,62.8,57.2,100,74,35,30.32,30.21,5,1,9,0.00
2013-8-26,93.9,75.5,60.1,77.2,68.8,60.1,100,81,51,30.24,29.88,7,2,14,0.00
2013-8-27,93.6,80.2,67.5,80.6,74.7,67.5,100,84,61,30.06,29.94,5,2,9,0.00
2013-8-28,94.3,81.6,73.6,80.4,76.1,73.6,100,85,59,29.96,29.86,7,3,16,0.00
2013-8-29,89.4,75.6,66.2,78.7,72.3,66.2,100,90,65,30.05,29.95,8,2,11,0.00
2013-8-30,95.7,77.0,62.8,78.2,70.2,62.8,100,82,49,29.99,29.82,6,1,10,0.00
2013-8-31,91.7,76.7,68.9,81.0,73.5,68.9,100,90,68,29.85,29.74,8,2,38,0.24
2013-9-1,90.6,75.3,66.0,77.6,70.9,66.0,100,87,60,29.82,29.73,6,2,12,0.00
2013-9-2,88.6,75.2,65.4,80.1,70.3,59.3,100,86,63,29.87,29.75,7,2,13,0.00
2013-9-3,80.6,65.1,55.0,65.2,58.3,54.6,100,80,57,30.05,29.88,7,2,13,0.00
2013-9-4,87.7,66.6,49.1,68.0,59.2,49.1,100,80,49,30.13,30.04,6,1,10,0.00
2013-9-5,89.9,70.1,54.0,71.5,60.8,48.6,100,75,50,30.19,30.10,6,2,11,0.00
2013-9-6,87.2,65.8,48.6,58.4,52.2,46.3,94,65,32,30.23,29.89,6,2,10,0.00
2013-9-7,90.2,69.8,51.6,71.3,60.8,49.1,97,75,50,30.09,29.93,5,2,11,0.00
2013-9-8,95.8,77.3,63.8,78.3,70.0,63.8,100,81,46,29.99,29.91,9,2,14,0.00
2013-9-9,94.7,78.5,64.6,78.1,71.1,64.6,100,80,49,30.02,29.94,8,3,15,0.00
2013-9-10,96.8,81.2,72.3,82.0,75.5,70.9,100,84,59,30.12,30.00,8,3,14,0.00
2013-9-11,96.4,80.1,69.0,82.6,74.6,69.0,100,84,55,30.14,30.00,6,3,11,0.01
2013-9-12,84.0,72.9,62.8,77.2,71.1,62.8,100,94,73,30.00,29.83,7,2,12,0.91
2013-9-13,67.6,57.5,47.8,62.7,51.0,44.4,100,80,54,30.07,29.89,8,4,16,0.00
2013-9-14,76.9,55.5,39.1,55.5,47.0,38.7,100,76,43,30.16,30.07,6,2,11,0.00
2013-9-15,80.7,61.1,42.5,61.0,52.7,42.5,100,77,46,30.13,30.00,6,2,13,0.04
2013-9-16,76.1,61.7,50.8,64.5,57.8,49.8,100,88,63,30.27,30.06,8,3,14,0.02
2013-9-17,82.4,62.1,48.9,63.0,55.4,48.9,100,81,48,30.31,30.15,7,3,13,0.00
2013-9-18,87.4,67.7,54.5,72.4,62.5,53.0,100,85,52,30.16,30.03,5,2,9,0.00
2013-9-19,84.2,69.9,63.7,76.0,68.4,63.7,100,95,73,30.07,29.94,6,2,10,0.22
2013-9-20,89.4,73.1,66.1,78.1,70.0,66.1,100,91,62,29.99,29.77,9,4,20,2.28
2013-9-21,79.2,65.1,53.4,67.5,60.0,50.4,100,85,52,29.85,29.67,7,3,15,0.84
2013-9-22,71.9,55.9,43.6,55.1,49.0,43.6,100,80,49,29.99,29.85,7,2,15,0.00
2013-9-23,75.2,56.4,43.4,57.5,49.4,43.4,100,79,53,30.10,29.99,7,2,12,0.00
2013-9-24,80.8,58.9,42.1,66.4,52.8,42.1,100,81,59,30.08,29.90,5,2,9,0.00
2013-9-25,79.3,59.8,48.7,64.0,54.6,48.3,100,84,53,29.91,29.85,6,1,10,0.00
2013-9-26,86.6,62.0,43.9,71.1,56.6,43.9,100,85,53,30.05,29.90,4,1,10,0.00
2013-9-27,87.5,63.4,44.7,67.1,54.5,44.6,100,76,37,30.16,30.05,4,1,8,0.00
2013-9-28,86.4,64.9,47.1,69.3,57.2,47.1,100,79,46,30.17,30.04,5,2,11,0.00
2013-9-29,69.5,62.0,55.0,65.4,60.6,54.6,100,95,75,30.04,29.98,7,3,13,0.06
2013-9-30,72.9,63.4,57.6,68.6,62.7,57.6,100,97,84,30.01,29.93,5,2,10,0.05
2013-10-1,79.9,65.5,56.1,73.3,62.4,56.1,100,90,66,30.07,29.99,7,2,12,0.00
2013-10-2,83.5,67.6,56.6,75.7,65.5,56.6,100,94,74,30.10,30.02,5,1,8,0.00
2013-10-3,80.1,69.1,63.2,76.8,68.5,63.2,100,98,87,30.08,29.98,6,2,10,1.35
2013-10-4,84.1,70.5,63.6,81.4,69.3,63.6,100,96,73,30.07,29.99,7,2,10,0.08
2013-10-5,81.6,70.8,64.1,78.0,69.8,64.1,100,97,79,30.05,29.91,6,4,16,0.25
2013-10-6,71.6,63.0,51.6,71.4,62.9,51.5,100,100,96,29.93,29.67,10,4,18,2.93
2013-10-7,65.2,51.7,43.1,53.6,47.3,42.7,100,86,58,30.13,29.78,8,3,21,0.00
2013-10-8,73.4,52.7,37.5,59.0,46.6,37.5,100,83,47,30.26,30.13,8,2,12,0.00
2013-10-9,78.4,56.0,41.3,62.6,49.8,41.3,100,82,46,30.22,30.13,7,1,11,0.00
2013-10-10,80.5,56.5,38.1,60.2,48.9,38.1,100,80,42,30.17,30.05,4,1,7,0.00
2013-10-11,84.8,59.9,42.6,66.8,53.3,42.6,100,82,42,30.09,29.99,4,1,8,0.00
2013-10-12,83.7,63.0,47.1,72.5,59.3,47.1,100,89,62,30.10,30.01,4,1,6,0.00
2013-10-13,77.0,59.8,46.8,65.6,55.2,43.8,100,86,57,30.28,30.10,7,2,12,0.00
2013-10-14,78.1,56.3,40.8,58.8,49.2,39.9,99,79,46,30.31,30.16,8,2,15,0.00
2013-10-15,73.5,60.4,46.8,69.1,59.0,46.8,100,96,78,30.17,29.91,7,2,12,0.00
2013-10-16,69.6,60.8,44.6,66.0,58.1,43.3,100,91,63,29.93,29.85,7,3,15,0.12
2013-10-17,56.7,46.3,38.0,52.9,44.8,38.0,100,95,83,29.95,29.83,9,2,15,0.12
2013-10-18,67.8,51.6,41.3,56.5,46.8,41.3,100,85,55,30.01,29.90,10,4,16,0.00
2013-10-19,51.3,45.3,39.6,47.9,43.7,39.2,100,94,78,29.96,29.80,7,2,15,0.15
2013-10-20,65.1,48.6,36.2,51.2,43.1,36.2,100,83,58,30.00,29.94,10,5,18,0.00
2013-10-21,67.6,51.3,41.7,55.5,45.1,40.0,94,80,53,29.98,29.72,10,5,18,0.00
2013-10-24,43.0,38.0,34.5,36.0,34.6,32.6,95,87,71,30.22,30.09,6,3,10,0.26
2013-10-25,54.9,38.5,28.1,41.4,31.6,26.8,96,78,48,30.40,30.22,6,2,14,0.00
2013-10-26,52.3,40.5,30.1,40.5,33.5,27.2,92,76,59,30.24,29.88,12,4,20,0.00
2013-10-27,61.9,42.5,30.0,51.3,36.8,29.3,100,82,50,30.07,30.01,6,1,12,0.00
2013-10-28,69.4,44.8,28.2,51.7,37.7,27.7,100,80,45,30.27,30.05,4,1,8,0.00
2013-10-29,58.8,46.2,32.4,48.7,42.4,32.4,100,87,66,30.33,30.18,4,1,7,0.00
2013-10-30,62.3,56.6,49.3,62.3,56.5,47.6,100,100,94,30.21,29.96,6,2,10,0.11
2013-10-31,63.7,61.3,55.4,63.7,61.1,55.4,100,99,93,30.00,29.30,16,7,25,1.14
2013-11-1,65.0,55.2,47.6,55.9,50.1,45.5,100,84,58,29.71,29.30,16,5,25,0.04
2013-11-2,59.0,49.5,43.7,48.4,42.3,37.1,92,76,54,30.05,29.70,8,4,18,0.00
2013-11-3,61.1,43.7,34.5,48.8,39.3,33.5,99,85,60,30.34,30.04,5,1,8,0.00
2013-11-4,60.5,47.0,35.1,45.7,40.0,33.7,96,77,55,30.38,30.27,8,3,14,0.00
2013-11-5,64.0,53.3,47.9,50.0,45.3,41.3,97,74,55,30.38,30.18,5,3,11,0.00
2013-11-6,65.5,55.6,44.5,59.4,50.3,40.5,100,83,62,30.18,28.36,12,6,23,0.45
2013-11-7,53.5,44.1,36.9,44.2,38.8,30.3,100,84,51,30.22,29.86,8,4,16,0.07
2013-11-9,62.9,55.2,48.9,44.2,41.4,39.7,75,60,49,30.05,29.97,14,7,27,0.00
2013-11-10,53.7,46.5,39.3,42.1,36.8,26.7,84,69,52,30.29,30.05,8,5,19,0.00
2013-11-12,37.2,28.7,21.1,28.6,23.3,19.3,94,80,65,30.56,30.50,7,2,14,0.13
2013-11-13,43.4,30.2,17.7,30.9,23.2,16.3,96,76,52,30.59,30.34,8,3,14,0.01
2013-11-14,55.6,39.9,26.6,32.9,25.8,21.1,81,59,34,30.34,30.11,10,5,19,0.00
2013-11-15,51.9,44.0,32.0,44.0,31.5,24.5,93,62,44,30.13,30.05,8,4,17,0.00
2013-11-16,59.8,52.5,44.8,58.5,51.5,43.2,100,96,92,30.10,29.87,12,6,19,0.00
2013-11-17,62.7,58.4,49.7,62.7,57.1,43.0,100,96,72,29.87,29.45,16,9,29,1.01
2013-11-18,55.5,44.9,32.6,44.5,38.0,28.1,93,77,59,30.15,29.74,14,6,28,0.00
2013-11-19,47.2,33.2,24.7,35.8,28.7,23.7,98,84,64,30.31,30.15,9,2,13,0.00
2013-11-20,54.2,37.3,26.2,41.7,31.7,24.2,95,81,60,30.30,30.19,6,2,14,0.00
2013-11-21,59.8,48.6,39.7,51.8,42.6,34.3,100,80,65,30.29,30.16,7,3,15,0.02
2013-11-22,52.5,47.0,36.5,52.5,45.5,30.0,100,95,77,30.34,30.13,9,4,19,0.21
2013-11-23,39.9,30.3,20.6,32.4,24.0,10.9,99,78,57,30.51,30.30,13,4,25,0.00
2013-11-24,32.5,20.5,11.9,18.3,12.7,7.3,88,72,52,30.63,30.46,6,2,12,0.00
2013-11-25,36.9,28.6,15.7,28.6,19.3,12.4,88,69,47,30.48,30.13,10,4,19,0.00
2013-11-26,34.2,32.8,30.3,33.5,31.7,28.1,100,95,85,30.16,29.87,6,2,15,0.03
2013-11-27,32.6,27.5,21.5,30.4,21.1,15.0,92,76,61,30.22,29.86,11,6,22,0.00
2013-11-28,36.1,25.5,17.4,22.3,17.4,12.4,87,72,51,30.39,30.23,11,3,18,0.00
2013-11-29,44.3,27.2,13.6,31.9,21.3,11.5,92,79,57,30.58,30.39,6,1,8,0.00
2013-11-30,53.3,35.2,21.0,38.4,28.4,18.0,91,77,53,30.49,30.13,6,3,12,0.00
2013-12-1,53.6,40.3,32.0,42.3,33.7,27.6,93,78,61,30.13,29.91,10,3,15,0.00
2013-12-2,52.6,39.8,30.2,45.7,37.3,29.4,100,91,76,29.91,29.71,4,1,8,0.04
2013-12-3,52.7,41.6,32.5,51.8,41.4,32.5,100,99,92,29.84,29.74,5,2,8,0.01
2013-12-4,61.5,53.9,44.9,61.1,53.9,44.9,100,100,97,29.84,29.68,9,5,17,0.00
2013-12-5,62.1,47.4,31.8,62.1,46.1,31.3,100,95,81,30.11,29.65,9,4,16,0.19
2013-12-6,32.8,28.7,26.2,31.3,28.5,26.2,100,99,93,30.34,30.09,6,4,15,0.02
2013-12-7,32.9,22.1,8.2,28.8,18.8,5.2,100,87,69,30.55,30.33,4,1,8,0.00
2013-12-8,32.9,24.7,14.1,32.9,22.7,11.8,100,92,84,30.48,29.96,8,4,15,0.00
2013-12-9,33.2,29.4,22.8,33.2,27.2,18.3,100,91,81,30.18,29.94,9,5,17,0.00
2013-12-10,32.2,23.9,18.2,23.1,18.3,12.9,94,79,63,30.30,30.10,11,4,19,0.00
2013-12-11,39.8,22.0,6.6,30.4,16.7,3.0,95,80,66,30.46,30.22,10,4,19,0.01
2013-12-12,27.0,16.2,1.3,13.8,8.1,-2.5,85,71,51,30.50,30.29,7,3,14,0.00
2013-12-13,40.7,28.3,15.9,33.1,21.0,10.5,99,74,60,30.29,30.11,7,3,14,0.06
2013-12-14,36.0,33.8,30.0,36.0,33.8,30.0,100,100,99,30.12,29.66,8,3,18,0.85
2013-12-15,32.5,27.6,25.3,29.4,24.5,18.7,100,88,74,30.07,29.82,12,6,24,0.00
2013-12-16,31.4,27.8,25.0,31.4,26.4,23.7,100,94,82,30.08,29.94,6,2,13,0.00
2013-12-17,34.1,29.8,26.3,33.1,27.6,24.5,100,91,76,30.10,29.93,10,4,18,0.00
2013-12-18,37.3,29.5,19.8,27.7,23.3,17.5,99,78,61,30.22,30.00,9,5,18,0.01
2013-12-19,52.6,44.0,34.0,44.6,36.0,24.1,85,73,66,30.04,29.91,10,6,17,0.11
2013-12-20,59.0,53.2,49.8,59.0,49.6,42.6,100,88,70,29.91,29.78,11,7,20,0.01
2013-12-21,65.9,59.2,55.3,65.9,59.2,55.3,100,100,100,29.78,29.41,16,8,32,2.65
2013-12-22,61.1,51.8,37.4,60.8,50.2,36.6,100,94,79,30.00,29.50,16,8,31,0.54
2013-12-23,37.4,31.5,25.3,36.7,26.6,19.3,99,82,68,30.33,30.00,8,5,17,0.02
2013-12-24,27.1,18.8,11.8,21.1,13.3,6.2,91,79,66,30.50,30.31,9,3,16,0.00
2013-12-25,33.2,26.3,16.0,26.8,18.9,13.9,91,74,55,30.45,30.14,9,3,17,0.00
2013-12-26,43.6,33.7,27.4,30.6,26.3,21.0,87,74,57,30.31,30.12,11,6,21,0.00
2013-12-27,50.3,38.1,30.0,38.7,31.3,24.6,86,76,63,30.37,30.24,7,4,12,0.00
2013-12-28,55.5,42.5,35.5,41.6,34.2,30.6,86,72,57,30.23,29.98,9,5,14,0.00
2013-12-29,44.4,38.2,31.8,43.4,36.0,29.1,100,92,66,29.97,29.74,8,4,20,0.37
2013-12-30,33.1,27.2,21.8,30.7,22.2,16.5,90,81,65,30.20,29.97,7,3,16,0.00
2013-12-31,37.0,27.5,22.7,26.7,19.4,15.3,82,71,60,30.32,30.11,12,5,21,0.00
2014-1-1,46.9,32.6,21.0,34.1,26.4,16.6,91,78,57,30.24,29.97,8,2,14,0.00
2014-1-2,33.0,23.4,8.4,31.3,21.6,4.8,100,92,83,30.21,29.79,11,4,19,0.00